Location: Unspecified
(50.7693°N, 0.0000°E)
Time: 17:41:56
(UTC+00:00)

Transit 4A - Pass Details

Date: 30 June 2019
Orbit: 864 x 981 km, 66.8° (Epoch: 25 August)

Event Time Altitude Azimuth Distance (km) Brightness Sun altitude
Rises 15:40:52 0° 319° (NW) 3,689 11.3 40.1°
Reaches altitude 10° 15:43:37 10° 312° (NW) 2,730 10.9 39.7°
Maximum altitude 15:49:24 38° 247° (WSW) 1,440 11.4 38.8°
Drops below altitude 10° 15:55:03 10° 182° (S) 2,657 10.5 37.9°
Sets 15:57:42 0° 174° (S) 3,579 11.0 37.5°
